Location: Cotafe
(40.3084°N, 3.7060°W)
Time: 12:53:05
(UTC+00:00)

Daily predictions for brighter satellites

Satellite Brightness Start Highest point End
(mag) Time Altitude Azimuth Time Altitude Azimuth Time Altitude Azimuth
Cosmos 44 3.5 20:08:46 10° S 20:12:42 36° ESE 20:16:42 10° NE
Helios 1A 4.4 20:10:56 10° NE 20:13:38 18° E 20:16:19 10° SE
CZ-4B DEB 4.3 20:08:19 10° SSE 20:13:45 83° WSW 20:19:14 10° NNW
Okean-O 3.9 20:11:05 10° ESE 20:14:38 25° ENE 20:18:12 10° NNE
Okean O Rocket 2.4 20:13:07 10° SE 20:17:03 34° ENE 20:21:01 10° N
ERS-1 Rocket 3.8 20:13:10 10° SE 20:17:39 35° ENE 20:22:09 10° N
Cosmos 1570 Rocket 4.4 20:13:01 10° NNW 20:18:16 69° WSW 20:23:27 10° S
CZ-4B R/B 3.3 20:13:17 10° SSE 20:18:36 68° ENE 20:24:04 10° N
Cosmos 1869 4.2 20:16:26 10° NNE 20:19:26 25° ENE 20:22:25 10° SE
COSMOS 2406 3.7 20:14:30 10° NNW 20:20:09 61° WSW 20:25:46 10° S
Cosmos 1486 Rocket 4.5 20:18:28 10° SSW 20:23:41 67° WNW 20:28:59 10° NNE
Tsikada Rocket 4.4 20:18:44 10° SSW 20:25:06 75° W 20:31:33 10° N
Meteor 1-21 Rocket 4.4 20:21:10 10° S 20:26:37 53° E 20:32:02 10° NNE
Cosmos 2082 Rocket 3.9 20:22:03 10° NW 20:26:59 31° WSW 20:31:54 10° SSW
Feng Yun 1-1 Rocket 4.4 20:22:21 10° SSE 20:28:06 87° WSW 20:33:43 10° NNW
Tiangong -2.1 20:25:01 10° WSW 20:28:16 70° SSE 20:31:32 10° E
CZ-4 R/B 2.5 20:25:12 10° S 20:28:41 40° W 20:32:14 10° NNW
Cosmos 990 Rocket 4.3 20:28:58 10° S 20:33:52 46° ESE 20:38:49 10° NNE
Cosmos 2369 Rocket 2.4 20:28:19 10° SSW 20:34:01 81° WNW 20:39:44 10° NNE
CZ-2C R/B 4.1 20:34:49 10° SSW 20:37:40 30° W 20:40:32 10° NW
ASTEX 1 4.5 20:37:22 10° NNE 20:41:23 25° E 20:44:20 15° SE
Cosmos 1340 Rocket 2.8 20:38:03 10° NNW 20:41:54 78° W 20:45:39 10° S
BREEZE-M DEB (TANK) 1.4 20:40:11 10° SW 20:42:15 56° SE 20:45:34 10° ENE
Terra 2.1 20:39:07 12° SSE 20:43:19 51° ENE 20:47:53 10° N
Cosmos 1818 3.8 20:39:41 10° NNW 20:45:04 59° NE 20:49:20 16° SE
MetOp-B 4.1 20:39:51 10° SSE 20:45:12 83° ENE 20:50:35 10° NNW
CZ-4B R/B 2.6 20:43:27 11° SSE 20:46:58 88° ENE 20:50:44 10° NNW
ISS -1.1 20:45:01 10° NNW 20:47:05 15° NNE 20:49:08 10° NE
Helios 1B rocket 2.2 20:45:35 14° SSE 20:48:37 65° ENE 20:52:16 10° N
Okean 2 Rocket 3.1 20:54:51 10° N 20:59:11 63° E 21:02:17 18° SSE
MOS 1-B 4.4 20:55:36 10° SSE 21:01:21 80° WSW 21:07:09 10° NNW
Okean 1 Rocket 3.2 21:00:24 10° N 21:04:40 54° E 21:07:12 23° SSE
Cosmos 2151 Rocket 3.6 21:02:23 10° N 21:06:55 84° W 21:10:33 15° S
Aureole 1 Rocket 4.4 21:03:31 10° S 21:09:42 52° E 21:16:49 10° NNE
BREEZE M DEB (TANK) 3.1 21:02:56 10° SW 21:10:51 77° SSE 21:13:47 10° ENE
Hubble Space Telescope 2.8 21:10:26 10° SSW 21:11:05 12° SSW 21:11:05 12° SSW
Cosmos 1455 Rocket 4.0 21:09:12 10° NNE 21:13:02 30° ENE 21:14:29 24° ESE
CZ-4B R/B 4.2 21:08:42 10° S 21:13:47 52° W 21:18:48 10° NNW
Cosmos 1937 Rocket 4.3 21:15:14 25° SE 21:16:44 29° E 21:21:06 10° NE
Cosmos 2221 Rocket 3.8 21:14:55 10° SSW 21:19:24 73° W 21:23:56 10° N
Ariane Rocket 3.6 21:16:57 25° SE 21:19:24 41° ENE 21:24:08 10° N
Nadezhda 4 Rocket 4.0 21:15:38 10° S 21:21:56 81° E 21:28:17 10° N
Cosmos 1812 2.3 21:22:09 10° N 21:25:15 55° E 21:25:43 49° ESE
CZ-4C R/B 2.7 21:22:29 10° SW 21:26:30 48° NW 21:31:32 10° NNE
Cosmos 1025 Rocket 3.5 21:25:38 10° SSW 21:29:54 60° W 21:34:14 10° N
Cosmos 2195 Rocket 4.5 21:28:27 22° SSE 21:32:33 63° E 21:38:43 10° NNE
OAO 2 Rocket 3.7 21:31:23 10° SW 21:35:54 37° SSE 21:36:28 36° SSE
Sich 1 Rocket 4.2 21:32:21 10° NNW 21:36:49 56° W 21:39:37 21° SSW
Cosmos 2026 Rocket 4.0 21:36:28 27° SSE 21:39:44 59° E 21:45:41 10° NNE
Cosmos 2285 Rocket 4.2 21:36:06 10° SSW 21:42:27 75° WNW 21:48:54 10° NNE
DELTA 2 R/B (1) 3.4 21:39:00 10° W 21:44:33 84° S 21:48:08 23° E
Cosmos 1428 Rocket 4.5 21:39:34 16° S 21:44:33 86° W 21:50:48 10° N
Cosmos 1656 4.1 21:43:26 35° SE 21:44:48 41° ESE 21:49:58 10° NE
SAR-Lupe-2 3.4 21:48:50 64° SSE 21:49:22 90° NNE 21:52:58 10° NNW
Okean-O 4.2 21:47:45 14° SSW 21:50:48 29° W 21:54:37 10° NW
Okean O Rocket 3.8 21:50:02 10° SW 21:53:18 21° W 21:56:37 10° NW
Spot 2 Rocket 4.2 21:50:58 23° SSW 21:53:53 49° W 21:58:49 10° NNW
Cosmos 1544 Rocket 4.5 22:00:11 10° NNE 22:04:10 33° ENE 22:04:13 33° ENE
Cosmos 1400 Rocket 4.4 22:02:09 10° NNE 22:04:37 21° ENE 22:04:37 21° ENE
Cosmos 1898 Rocket 3.7 22:01:26 18° SSW 22:05:14 70° WNW 22:10:29 10° NNE
Tiangong -1.6 22:02:10 10° W 22:05:01 59° NW 22:05:01 59° NW
Cosmos 1092 Rocket 4.0 22:03:40 30° S 22:07:02 89° E 22:13:22 10° N
SPOT 3 Rocket 3.9 22:08:42 35° SSW 22:10:45 58° W 22:15:54 10° NNW
Cosmos 2228 2.9 22:14:08 10° N 22:18:20 67° ENE 22:18:20 67° ENE
Terra 4.2 22:18:19 10° SW 22:21:07 16° W 22:23:56 10° NW
DNEPR-1 R/B 3.4 22:17:40 10° NW 22:21:55 78° WSW 22:22:07 75° SSW
RESURS DK-1 3.0 22:18:58 10° NNW 22:22:33 42° NE 22:22:33 42° NE
ISS -2.6 22:21:08 10° NW 22:23:45 43° N 22:23:45 43° N
COBE Rocket 4.4 22:25:27 10° N 22:29:56 51° WNW 22:31:31 35° SW
USA 81 4.3 22:30:48 43° SW 22:32:23 64° W 22:37:38 10° N
Cosmos 2297 Rocket 2.7 22:28:57 10° NNW 22:34:24 46° ENE 22:35:26 41° E
BlueWalker 3 3.0 22:32:12 10° NW 22:35:19 38° NNE 22:35:19 38° NNE
Cosmos 2058 4.3 22:37:54 27° NE 22:37:54 27° NE 22:40:08 10° NNE
Cosmos 1980 Rocket 4.1 22:40:42 15° ENE 22:40:42 15° ENE 22:42:33 10° ENE
Cosmos 1975 Rocket 4.4 22:38:01 27° WSW 22:39:20 34° WNW 22:43:16 10° N
Cosmos 1697 Rocket 3.2 22:42:33 42° E 22:42:33 42° E 22:47:16 10° NE
Cosmos 2098 Rocket 3.5 22:42:06 10° NNW 22:45:08 48° WNW 22:45:08 48° WNW
ALOS 2 4.4 22:47:22 20° ENE 22:47:22 20° ENE 22:50:23 10° NNE
Cosmos 2360 4.3 22:55:02 51° SW 22:56:27 74° WNW 23:02:11 10° NNE
Cosmos 2112 Rocket 3.9 22:57:48 10° NNW 23:03:06 83° WSW 23:03:11 82° SW
Cosmos 2227 Rocket 3.0 23:02:13 10° N 23:07:32 39° ENE 23:08:19 37° E
SL-08 ROCKET BODY 4.5 23:09:45 58° SW 23:10:46 69° W 23:16:38 10° N
Cosmos 1680 Rocket 3.8 23:07:03 10° NNW 23:12:12 56° WSW 23:12:12 56° WSW
Meteor 2-3 Rocket 4.4 23:21:27 43° E 23:21:27 43° E 23:26:29 10° NNE
Gbstr 26 Del rocket 3.7 23:15:56 10° NW 23:21:28 85° SW 23:21:45 81° SSE
Lacrosse 5 rocket 3.0 23:26:21 10° NNW 23:29:19 28° NNE 23:29:19 28° NNE
Cosmos 1782 4.5 23:26:27 10° NNW 23:28:26 30° NNW 23:28:26 30° NNW
DELTA 2 R/B (1) 4.4 23:25:22 10° W 23:28:48 38° W 23:28:48 38° W
Cosmos 2266 Rocket 4.1 23:29:53 59° SW 23:30:55 69° W 23:37:19 10° N
Cosmos 494 Rocket 4.2 23:26:11 10° NNW 23:30:49 61° WNW 23:30:49 61° WNW
ARIANE 5 R/B 3.3 23:33:35 51° NW 23:33:35 51° NW 23:37:01 10° NNW
Cosmos 1125 Rocket 3.9 23:40:23 57° NE 23:40:23 57° NE 23:44:42 10° NNE
Cosmos 2263 Rocket 2.9 23:44:03 10° N 23:49:24 43° ENE 23:49:50 42° ENE
Cosmos 1048 Rocket 4.2 23:45:30 10° NNW 23:50:15 68° NW 23:50:15 68° NW
Cosmos 883 Rocket 4.4 23:44:52 10° N 23:51:13 77° W 23:51:33 75° SW
